Volver al catálogo

STARLINK-5489

ActivoComunicacionesVLEO
NORAD 56136·PAYLOAD·🇺🇸 United States

Lanzado Mar 29, 2023 desde Cape Canaveral Space Force Station

Loading…

Próximos Pases (próximas 24 horas)

TLE

ActualizadoSource: CelesTrak SupGP

Época: Sep 15, 2026, 03:05 UTC

1 56136C 23046AV  26258.12895833  .00047059  00000+0  17045-2 0  2589
2 56136  43.0015 156.9444 0001594 276.9457 120.6298 15.27553852    10

Sigue STARLINK-5489 en tiempo real con AllMySat

Download on the App Store